EDT,Max TemperatureF,Mean TemperatureF,Min TemperatureF,Max Dew PointF,MeanDew PointF,Min DewpointF,Max Humidity, Mean Humidity, Min Humidity, Max Sea Level PressureIn, Mean Sea Level PressureIn, Min Sea Level PressureIn, Max VisibilityMiles, Mean VisibilityMiles, Min VisibilityMiles, Max Wind SpeedMPH, Mean Wind SpeedMPH, Max Gust SpeedMPH,PrecipitationIn, CloudCover, Events, WindDirDegrees
2013-10-1,75,64,54,59,56,53,100,86,46,30.10,30.06,30.00,10,5,0,10,2,18,0.01,4,Fog,245
2013-10-2,79,65,53,63,58,54,100,89,58,30.11,30.07,30.04,10,6,0,12,6,22,0.01,3,Fog,228
2013-10-3,78,62,50,64,57,50,100,93,62,30.17,30.12,30.04,10,6,0,9,2,16,0.01,5,Fog-Rain-Thunderstorm,292
2013-10-4,80,70,60,67,63,60,100,93,56,30.14,30.09,30.03,10,5,0,12,3,16,0.02,5,Fog-Rain,216
2013-10-5,81,69,60,67,65,60,100,95,64,30.14,30.08,30.03,10,3,0,13,1,,0.25,6,Fog-Rain,271
2013-10-6,84,72,60,66,62,56,100,86,40,30.04,29.96,29.83,10,4,0,12,2,22,0.01,4,Fog,34
2013-10-7,71,58,46,62,52,41,100,83,57,30.11,29.85,29.70,10,9,2,17,11,44,0.32,5,Rain,231
2013-10-8,66,52,39,47,42,34,100,76,30,30.36,30.27,30.12,10,10,5,9,4,,0.00,2,,324
2013-10-9,64,50,36,43,38,32,100,70,31,30.42,30.35,30.31,10,10,10,10,4,,0.00,0,,39
2013-10-10,63,50,37,50,42,31,100,81,31,30.30,30.22,30.13,10,9,2,8,3,,0.14,3,Rain,26
2013-10-11,61,53,46,55,49,46,100,93,72,30.15,30.12,30.09,10,8,0,12,4,18,0.54,7,Fog-Rain,29
2013-10-12,71,58,44,54,48,45,100,79,49,30.25,30.17,30.11,10,10,2,13,5,,0.00,3,,35
2013-10-13,57,54,50,56,53,45,100,93,72,30.34,30.30,30.23,10,8,0,8,4,,0.05,7,Fog-Rain,68
2013-10-14,60,56,53,55,54,53,100,96,80,30.35,30.31,30.27,10,5,0,6,1,,0.00,8,Fog-Rain,66
2013-10-15,70,61,53,55,53,49,100,84,58,30.27,30.18,30.06,10,9,0,7,2,,0.00,6,Fog,83
2013-10-16,62,56,51,58,54,49,100,89,82,30.05,29.96,29.88,10,10,9,13,2,17,0.03,6,Rain,210
2013-10-17,63,54,46,61,52,46,100,94,67,29.94,29.84,29.64,10,6,0,22,4,31,0.58,7,Fog-Rain-Thunderstorm,258
2013-10-18,60,50,41,46,41,37,93,76,46,30.01,29.94,29.84,10,10,10,16,9,23,0.00,5,Rain,250
2013-10-19,54,42,30,46,37,30,100,93,64,30.00,29.91,29.75,10,4,0,17,3,26,0.03,4,Fog-Rain,297
2013-10-20,57,46,37,38,36,33,93,72,44,30.07,29.99,29.90,10,10,10,15,9,23,0.00,3,,229
2013-10-21,64,47,30,40,34,28,100,70,27,30.12,30.02,29.88,10,9,2,14,3,20,0.00,1,,277
2013-10-22,51,42,35,45,35,24,96,69,38,29.91,29.87,29.81,10,10,8,16,6,30,0.06,4,Rain,264
2013-10-23,43,38,34,37,34,30,96,86,70,29.89,29.80,29.71,10,10,8,13,3,22,0.03,8,Rain-Snow,271
2013-10-24,44,38,33,33,30,25,96,80,49,30.10,29.98,29.86,10,10,9,14,7,21,0.00,6,Rain-Snow,248
2013-10-25,48,39,32,36,31,25,100,80,46,30.27,30.21,30.10,10,9,2,16,7,21,0.01,6,Snow,243
2013-10-26,50,38,28,29,26,21,100,64,34,30.24,30.05,29.91,10,10,10,18,9,31,0.00,3,,219
2013-10-27,45,38,28,37,32,27,93,77,55,30.14,30.04,29.91,10,10,4,12,8,21,0.02,4,Rain,274
2013-10-28,57,40,24,35,30,23,100,74,39,30.32,30.24,30.14,10,9,6,7,1,,0.00,2,,342
2013-10-29,57,42,30,36,34,31,100,74,45,30.43,30.36,30.32,10,10,10,7,4,,0.00,1,,15
2013-10-30,64,48,32,44,38,31,100,74,40,30.30,30.22,30.13,10,10,8,8,4,,0.00,1,,337
2013-10-31,63,56,48,60,52,44,100,91,80,30.14,29.93,29.58,10,8,2,13,3,25,0.32,7,Rain,291